О сайте

Добрый день Уважаемые посетители сайта!
Этот ресурс создан с целью предоставить любителям малой авиации максимум полезной информации и возможностей по обмену различными сведениями об аэродромах и интересных маршрутах. Для этого на сайте есть странички Аэродромы - информация из баз АОПА (в том виде как она предоставляется к свободному использованию) и Каталог аэродромов и аэроклубов , с различными вариантами поиска и сортировки, возможностью найти трансфер, арендовать авто или забронировать номер в гостинице on-line, а так же возможностями :
- для аэроклубов - добавить какую либо дополнительную информацию в страничку , посвященную аэроклубу
(чтобы добавить информацию необходимо зарегистрироваться, и подтвердить свою принадлежность к какому либо аэроклубу)
- для посетителей - поделиться каким либо интересным маршрутом, нарисовать его на карте, описать достопримечательности, загрузить фотографии и поставить в соответствие с каким либо клубом или аэродромом.
(чтобы добавить информацию необходимо зарегистрироваться)

Аэроклубы / Аэродромы в Москве

Карта аэродромов в Москве по коду ИКАО

Список аэродромов Москвы

Javascript is required to view this map.

Авиационная погода в Москва - Домодедово

Регион: 
Погода METAR: 
UUDD 271800Z 10004MPS 9999 SCT040 M03/M10 Q1015 R88/190042 NOSIG
Время наблюдения: 
2020-01-27T18:00:00Z
Температура C: 
-3.0
Точка росы: 
-10.0
Направление ветра: 
100
Скорость ветра: 
8
Метеорологическая видимость: 
6.21
Условия полета: 
VFR
Аэропорт подробнее: 

Авиационная погода в Москва - Шереметьево

Регион: 
Погода METAR: 
UUEE 271800Z 09007MPS CAVOK M04/M10 Q1015 R06R/290045 R06L/190051 NOSIG
Время наблюдения: 
2020-01-27T18:00:00Z
Температура C: 
-4.0
Точка росы: 
-10.0
Направление ветра: 
90
Скорость ветра: 
14
Метеорологическая видимость: 
6.21
Условия полета: 
VFR
Аэропорт подробнее: 

Авиационная погода в Москва - Внуково

Регион: 
Погода METAR: 
UUWW 271800Z 11006MPS 9999 BKN039 M02/M10 Q1014 R06/190050 NOSIG
Время наблюдения: 
2020-01-27T18:00:00Z
Температура C: 
-2.0
Точка росы: 
-10.0
Направление ветра: 
110
Скорость ветра: 
12
Метеорологическая видимость: 
6.21
Условия полета: 
VFR
Аэропорт подробнее: 

Аэроклубы и аэродромы по регионам Юга России


Найти трансфер

С помощью этой формы Вы можете найти трансфер из аэропорта в город, аэропорт или вокзал: